Showing default

OPS 0340, 2125

Orbit data source: Space-Track

OPS 0340, 2125 is a payload satellite owned by USAF SSD (US) in SSO that was launched on Thu, 31 Mar 1966 UTC via a THOR BURNER 1 launch vehicle from the Air Force Western Test Range (AFWTR). Payloads include a variety of satellites, spacecraft, and rockets equipped with specific instruments for various scientific and technological missions. These include communications satellites like Starlink; space stations such as the ISS; scientific satellites like the Hubble; Earth observation satellites from companies like Planet Labs, Umbra, and HawkEye 360; GPS; miniature CubeSats for education and research; and military/defense satellites.

Loading next visibility...
OPS 0340 details
Identifier
2125, 1966-026A
Orbit
SSO
Last TLE update15 hours ago
Origin
Flag of USUSAF SSD (US)
ManufacturerRCA/East Windsor
MissionDefense Weather
Bus & MotorP35?, Unknown motor
Mass72 kg wet, 72 kg dry
Launch date (UTC)
1966-03-31 (59 years ago)
Launch vehicle
THOR BURNER 1
Launch site
Air Force Western Test Range (AFWTR)
Object type
Payload
Rocket body
Debris
Shape & HBRCyl, 0.6 m
Radar Cross Section0.377 m², Medium (>0.1 m² and < 1m²)

Expand to show TLE details & history

TLE from 15 hours ago
0 OPS 0340
1 02125U 66026A   25039.93725897  .00000984  00000-0  18663-3 0  9997
2 02125  97.9943 219.2832 0148838 352.4126   7.4822 14.59626359 87564
Epoch: 2025-02-08T22:29Z
Definitive object data (Epoch: 2025-02-08T22:29:39.175Z)
Latitude-0.00004°
Longitude102.592°
Altitude593.008 km
Speed7.619 km/s
True Right ascension14h 37m 07s
True Declination0° 00' 00"
Sunlit
Object was in daylight at TLE epoch
Visualization TLE readout
Latitude54.89999°
Longitude-65.32593°
Altitude775.769 km
Speed7.433 km/s
Apparent Right ascension03h 50m 13s
Apparent Declination11° 05' 11"
Sunlit
Object is in daylight
Visualization observer readout
Local Sidereal Time16:11:02
Azimuth6.557° NNE
Elevation-38.769°
Doppler factor1
Orbital elements
Apogee altitude796.674 km
Perigee altitude586.23 km
Semi-major axis7,069.589 km
Eccentricity0.0148838
Inclination97.9943°
RAAN219.2832°
Arg. of periapsis352.4126°
True anomaly7.70846°
Mean anomaly7.4822°
Eccentric anomaly7.59491°
Mean motion3.65134 °/min
BSTAR0.00018663
Orbital period98.59 mins
Loading maneuver chart data...
Loading historical data...
Loading historical data...
Loading historical data...
Loading historical data...
Loading historical data...
Loading historical data...
Loading historical data...

OPS 0340 Visibility forecast

Observer location: undefined°, undefined

Span
Click to sort rows by Start time (UTC) header in descending order
Start Az.
Max El. time (UTC)
Max El. Az.
Max El.
End time (UTC)
End Az.
8 mins2025-02-09 23:44:52.849Z40.452° NE2025-02-09 23:48:52.849Z93.298° ESE23.084°2025-02-09 23:52:52.849Z147.191° SSE
7 mins2025-02-10 01:23:52.849Z342.596° N2025-02-10 01:26:52.849Z280.691° WNW31.708°2025-02-10 01:30:52.849Z224.947° SW
4 mins2025-02-10 10:51:52.849Z88.786° E2025-02-10 10:52:52.849Z70.527° E19.091°2025-02-10 10:55:52.849Z23.272° NE
6 mins2025-02-10 12:27:52.849Z207.853° SW2025-02-10 12:30:52.849Z275.046° WNW28.692°2025-02-10 12:33:52.849Z324.559° NNW
|